Weather Roundup
Issued by NWS Corpus Christi, TX

Home | Current Version | Previous Version | Text Only | Print | Product List | Glossary On
Versions: 1 2 3 4 5 6 7 8 9 10 11 12 13 14 15 16 17 18 19 20 21 22 23 24 25 26 27 28 29 30 31 32 33 34 35 36 37 38 39 40 41 42 43 44 45 46 47 48 49 50
000
ASUS44 KCRP 021110
HRRCRP

SOUTH TEXAS REGIONAL WEATHER ROUNDUP
NATIONAL WEATHER SERVICE CORPUS CHRISTI TX
600 AM CDT MON MAY 02 2016


TXZ229>244-021200-
...CORPUS CHRISTI AREA OBSERVATIONS...

CITY           SKY/WX    TMP DP  RH WIND       PRES   REMARKS
CORPUS CHRISTI LGT RAIN  73  67  81 N17       29.87R
NAS CORPUS CHR LGT RAIN  74  73  97 N18       29.85R
ROCKPORT       LGT RAIN  71  69  93 N18       29.86R
KINGSVILLE NAS CLOUDY    73  69  87 N10       29.87R
ALICE          CLOUDY    72  62  71 N13G22    29.88R
FALFURRIAS     CLOUDY    73  65  75 NW8       29.88R
$$

...VICTORIA AREA OBSERVATIONS...

CITY           SKY/WX    TMP DP  RH WIND       PRES   REMARKS
VICTORIA       CLOUDY    65  63  93 N13       29.92R
BEEVILLE       CLOUDY    70  61  73 N15G21    29.90S
PLEASANTON     CLOUDY    67  54  62 N13G18    29.97R
SAN ANTONIO    CLOUDY    66  50  56 N23G29    29.99R
$$

...LAREDO AREA OBSERVATIONS...

CITY           SKY/WX    TMP DP  RH WIND       PRES   REMARKS
LAREDO         CLOUDY    71  59  65 NW13      29.96R
COTULLA        CLOUDY    72  54  53 N8        29.97R
DEL RIO        CLOUDY    61  48  62 N14G26    30.09R
MCALLEN        CLOUDY    80  74  81 N9        29.85R
HEBBRONVILLE   CLOUDY    71  59  65 N9        29.92R
$$

...OTHER TEXAS OBSERVATIONS...

CITY           SKY/WX    TMP DP  RH WIND       PRES   REMARKS
BROWNSVILLE    CLOUDY    77  76  96 CALM      29.82R FOG
HOUSTON        CLOUDY    71  70  96 N6        29.91R
COL. STATION   LGT RAIN  61  57  87 N10       29.98R
AUSTIN         CLOUDY    64  53  67 N13       30.00R
WACO           CLOUDY    59  51  75 N21       30.07R
FORT WORTH     LGT RAIN  55  51  86 NW14      30.11R
WICHITA FALLS  CLOUDY    47  44  90 NW8       30.15S
LUBBOCK        CLOUDY    41  36  82 N8        30.22R
EL PASO        CLEAR     45  34  65 NE12      30.20S
$$

...MARINE OBSERVATIONS...

STATION/POSITION TIME  SKY/WX   TEMP    WIND        PRES    VSBY  WAVE   SWELL
                                AIR SEA DIR/SP/G                  HT/PER HT/PER
                 (UTC)          (F)     (DEG/KT/KT) (MB)    (MI)  (FT/S) (FT/S)
PORT ARANSAS     1100            78 80   20/  5/  6 1011.1R
BUOY 90 E PORT A 1050            78 77  130/ 16/ 21 1009.6F         7/ 8   5/ 8
BUOY 45 SE BAFFI 1050            78 78  120/  8/ 10 1009.4S         4/ 7   3/ 7
BUOY 200 E PT IS 1050                                 N/A           5/ 8   2/16
BUOY 15 E GALVES 1050            74 76   70/ 14/ 16 1010.5F         6/ 8   5/ 8
$$



USA.gov is the U.S. government's official web portal to all federal, state and local government web resources and services.